Time,TemperatureF,DewpointF,PressureIn,WindDirection,WindDirectionDegrees,WindSpeedMPH,WindSpeedGustMPH,Humidity,HourlyPrecipIn,Conditions,Clouds,dailyrainin,SoftwareType,DateUTC
2013-03-06 00:03:00,26.2,21.5,30.38,NNW,338,0.0,0.0,82,0.00,CLR,CLR,0.00,WeatherDisplay:10.37,2013-03-06 06:03:00,
2013-03-06 00:09:00,26.1,21.9,30.38,NNW,338,0.0,0.0,84,0.00,CLR,CLR,0.00,WeatherDisplay:10.37,2013-03-06 06:09:00,
2013-03-06 00:15:00,26.7,22.0,30.38,NNW,338,0.0,0.0,82,0.00,CLR,CLR,0.00,WeatherDisplay:10.37,2013-03-06 06:15:00,
2013-03-06 00:21:00,25.9,21.7,30.38,NNW,338,0.0,0.0,84,0.00,CLR,CLR,0.00,WeatherDisplay:10.37,2013-03-06 06:21:00,
2013-03-06 00:27:00,26.6,22.4,30.39,NNW,338,0.0,0.0,84,0.00,CLR,CLR,0.00,WeatherDisplay:10.37,2013-03-06 06:27:00,
2013-03-06 00:33:00,26.2,22.0,30.39,NNW,338,0.0,0.0,84,0.00,CLR,CLR,0.00,WeatherDisplay:10.37,2013-03-06 06:33:00,
2013-03-06 00:39:00,26.6,22.4,30.39,NNW,338,0.0,0.0,84,0.00,CLR,CLR,0.00,WeatherDisplay:10.37,2013-03-06 06:39:00,
2013-03-06 00:45:00,26.6,22.4,30.39,NNW,338,0.0,0.0,84,0.00,CLR,CLR,0.00,WeatherDisplay:10.37,2013-03-06 06:45:00,
2013-03-06 00:51:00,26.4,22.2,30.39,NNW,338,0.0,0.0,84,0.00,CLR,CLR,0.00,WeatherDisplay:10.37,2013-03-06 06:51:00,
2013-03-06 00:57:00,26.4,22.2,30.39,NNW,338,0.0,0.0,84,0.00,CLR,CLR,0.00,WeatherDisplay:10.37,2013-03-06 06:57:00,
2013-03-06 01:03:00,26.1,21.9,30.40,NNW,338,0.0,0.0,84,0.00,CLR,CLR,0.00,WeatherDisplay:10.37,2013-03-06 07:03:00,
2013-03-06 01:09:00,26.1,22.2,30.40,NNW,338,0.0,0.0,85,0.00,CLR,CLR,0.00,WeatherDisplay:10.37,2013-03-06 07:09:00,
2013-03-06 01:15:00,26.1,22.2,30.40,NNW,338,0.0,0.0,85,0.00,CLR,CLR,0.00,WeatherDisplay:10.37,2013-03-06 07:15:00,
2013-03-06 01:21:00,25.4,21.5,30.40,NNW,338,0.0,0.0,85,0.00,CLR,CLR,0.00,WeatherDisplay:10.37,2013-03-06 07:21:00,
2013-03-06 01:27:00,24.9,21.3,30.40,NNW,338,0.0,0.0,86,0.00,CLR,CLR,0.00,WeatherDisplay:10.37,2013-03-06 07:27:00,
2013-03-06 01:33:00,24.6,21.0,30.40,NNW,338,0.0,0.0,86,0.00,CLR,CLR,0.00,WeatherDisplay:10.37,2013-03-06 07:33:00,
2013-03-06 01:39:00,24.7,21.1,30.40,NNW,338,0.0,0.0,86,0.00,CLR,CLR,0.00,WeatherDisplay:10.37,2013-03-06 07:39:00,
2013-03-06 01:45:00,24.0,20.4,30.40,NNW,338,0.0,0.0,86,0.00,CLR,CLR,0.00,WeatherDisplay:10.37,2013-03-06 07:45:00,
2013-03-06 01:51:00,23.7,20.4,30.40,NNW,338,0.0,0.0,87,0.00,CLR,CLR,0.00,WeatherDisplay:10.37,2013-03-06 07:51:00,
2013-03-06 01:57:00,23.5,20.5,30.40,NNW,338,0.0,0.0,88,0.00,CLR,CLR,0.00,WeatherDisplay:10.37,2013-03-06 07:57:00,
2013-03-06 02:03:00,23.6,20.6,30.40,NNW,338,0.0,0.0,88,0.00,CLR,CLR,0.00,WeatherDisplay:10.37,2013-03-06 08:03:00,
2013-03-06 02:09:00,24.0,20.9,30.40,NNW,338,0.0,0.0,88,0.00,CLR,CLR,0.00,WeatherDisplay:10.37,2013-03-06 08:09:00,
2013-03-06 02:15:00,24.8,21.5,30.40,NNW,338,0.0,0.0,87,0.00,CLR,CLR,0.00,WeatherDisplay:10.37,2013-03-06 08:15:00,
2013-03-06 02:21:00,24.4,21.1,30.40,NNW,338,0.0,0.0,87,0.00,CLR,CLR,0.00,WeatherDisplay:10.37,2013-03-06 08:21:00,
2013-03-06 02:27:00,24.2,20.9,30.40,NNW,338,0.0,0.0,87,0.00,CLR,CLR,0.00,WeatherDisplay:10.37,2013-03-06 08:27:00,
2013-03-06 02:33:00,24.3,21.3,30.40,NNW,338,0.0,0.0,88,0.00,CLR,CLR,0.00,WeatherDisplay:10.37,2013-03-06 08:33:00,
2013-03-06 02:39:00,23.7,20.7,30.41,NNW,338,0.0,0.0,88,0.00,CLR,CLR,0.00,WeatherDisplay:10.37,2013-03-06 08:39:00,
2013-03-06 02:45:00,23.2,20.2,30.41,NNW,338,0.0,0.0,88,0.00,CLR,CLR,0.00,WeatherDisplay:10.37,2013-03-06 08:45:00,
2013-03-06 02:51:00,22.6,19.6,30.40,NNW,338,0.0,0.0,88,0.00,CLR,CLR,0.00,WeatherDisplay:10.37,2013-03-06 08:51:00,
2013-03-06 02:57:00,23.7,20.9,30.40,NNW,338,0.0,0.0,89,0.00,CLR,CLR,0.00,WeatherDisplay:10.37,2013-03-06 08:57:00,
2013-03-06 03:03:00,23.0,20.2,30.40,NNW,338,0.0,0.0,89,0.00,CLR,CLR,0.00,WeatherDisplay:10.37,2013-03-06 09:03:00,
2013-03-06 03:09:00,22.8,20.6,30.40,NNW,338,0.0,0.0,91,0.00,CLR,CLR,0.00,WeatherDisplay:10.37,2013-03-06 09:09:00,
2013-03-06 03:15:00,22.5,20.3,30.39,NNW,338,0.0,0.0,91,0.00,CLR,CLR,0.00,WeatherDisplay:10.37,2013-03-06 09:15:00,
2013-03-06 03:21:00,22.1,19.9,30.39,NNW,338,0.0,0.0,91,0.00,CLR,CLR,0.00,WeatherDisplay:10.37,2013-03-06 09:21:00,
2013-03-06 03:27:00,21.6,19.4,30.39,NNW,338,0.0,0.0,91,0.00,CLR,CLR,0.00,WeatherDisplay:10.37,2013-03-06 09:27:00,
2013-03-06 03:33:00,21.6,19.4,30.39,NNW,338,0.0,0.0,91,0.00,CLR,CLR,0.00,WeatherDisplay:10.37,2013-03-06 09:33:00,
2013-03-06 03:39:00,21.4,19.2,30.38,NNW,338,0.0,0.0,91,0.00,CLR,CLR,0.00,WeatherDisplay:10.37,2013-03-06 09:39:00,
2013-03-06 03:45:00,21.0,19.0,30.38,NNW,338,0.0,0.0,92,0.00,CLR,CLR,0.00,WeatherDisplay:10.37,2013-03-06 09:45:00,
2013-03-06 03:51:00,21.0,19.0,30.38,NNW,338,0.0,0.0,92,0.00,CLR,CLR,0.00,WeatherDisplay:10.37,2013-03-06 09:51:00,
2013-03-06 03:57:00,21.0,19.0,30.38,NNW,338,0.0,0.0,92,0.00,CLR,CLR,0.00,WeatherDisplay:10.37,2013-03-06 09:57:00,
2013-03-06 04:03:00,21.7,19.7,30.39,NNW,338,0.0,0.0,92,0.00,CLR,CLR,0.00,WeatherDisplay:10.37,2013-03-06 10:03:00,
2013-03-06 04:09:00,21.0,18.8,30.39,NNW,338,0.0,0.0,91,0.00,CLR,CLR,0.00,WeatherDisplay:10.37,2013-03-06 10:09:00,
2013-03-06 04:15:00,21.5,19.3,30.39,NNW,338,0.0,0.0,91,0.00,CLR,CLR,0.00,WeatherDisplay:10.37,2013-03-06 10:15:00,
2013-03-06 04:21:00,21.0,18.8,30.39,NNW,338,0.0,0.0,91,0.00,CLR,CLR,0.00,WeatherDisplay:10.37,2013-03-06 10:21:00,
2013-03-06 04:27:00,21.0,18.8,30.38,NNW,338,0.0,0.0,91,0.00,CLR,CLR,0.00,WeatherDisplay:10.37,2013-03-06 10:27:00,
2013-03-06 04:33:00,21.0,18.8,30.38,NNW,338,0.0,0.0,91,0.00,CLR,CLR,0.00,WeatherDisplay:10.37,2013-03-06 10:33:00,
2013-03-06 04:39:00,21.0,18.8,30.38,NNW,338,0.0,0.0,91,0.00,CLR,CLR,0.00,WeatherDisplay:10.37,2013-03-06 10:39:00,
2013-03-06 04:45:00,21.2,19.0,30.38,NNW,338,0.0,0.0,91,0.00,CLR,CLR,0.00,WeatherDisplay:10.37,2013-03-06 10:45:00,
2013-03-06 04:51:00,22.2,19.4,30.38,NNW,338,0.0,0.0,89,0.00,CLR,CLR,0.00,WeatherDisplay:10.37,2013-03-06 10:51:00,
2013-03-06 04:57:00,22.3,19.3,30.38,NNW,338,0.0,0.0,88,0.00,CLR,CLR,0.00,WeatherDisplay:10.37,2013-03-06 10:57:00,
2013-03-06 05:03:00,22.7,19.4,30.39,NNW,338,0.0,0.0,87,0.00,CLR,CLR,0.00,WeatherDisplay:10.37,2013-03-06 11:03:00,
2013-03-06 05:09:00,21.6,18.3,30.39,NNW,338,0.0,0.0,87,0.00,CLR,CLR,0.00,WeatherDisplay:10.37,2013-03-06 11:09:00,
2013-03-06 05:15:00,21.0,18.0,30.39,NNW,338,0.0,0.0,88,0.00,CLR,CLR,0.00,WeatherDisplay:10.37,2013-03-06 11:15:00,
2013-03-06 05:21:00,20.5,18.0,30.39,NNW,338,0.0,0.0,90,0.00,CLR,CLR,0.00,WeatherDisplay:10.37,2013-03-06 11:21:00,
2013-03-06 05:27:00,20.5,18.3,30.37,NNW,338,0.0,0.0,91,0.00,CLR,CLR,0.00,WeatherDisplay:10.37,2013-03-06 11:27:00,
2013-03-06 05:33:00,20.7,18.5,30.37,NNW,338,0.0,0.0,91,0.00,CLR,CLR,0.00,WeatherDisplay:10.37,2013-03-06 11:33:00,
2013-03-06 05:39:00,21.1,18.9,30.38,NNW,338,0.0,0.0,91,0.00,CLR,CLR,0.00,WeatherDisplay:10.37,2013-03-06 11:39:00,
2013-03-06 05:45:00,21.2,18.5,30.38,NNW,338,0.0,0.0,89,0.00,CLR,CLR,0.00,WeatherDisplay:10.37,2013-03-06 11:45:00,
2013-03-06 05:51:00,21.0,18.3,30.38,NNW,338,0.0,0.0,89,0.00,CLR,CLR,0.00,WeatherDisplay:10.37,2013-03-06 11:51:00,
2013-03-06 05:57:00,21.2,18.5,30.38,North,356,2.0,7.0,89,0.00,CLR,CLR,0.00,WeatherDisplay:10.37,2013-03-06 11:57:00,
2013-03-06 06:03:00,22.2,18.9,30.38,East,81,7.0,9.0,87,0.00,CLR,CLR,0.00,WeatherDisplay:10.37,2013-03-06 12:03:00,
2013-03-06 06:09:00,23.2,19.4,30.38,ENE,71,5.0,7.0,85,0.00,CLR,CLR,0.00,WeatherDisplay:10.37,2013-03-06 12:09:00,
2013-03-06 06:15:00,23.2,19.4,30.38,NNE,20,2.0,4.0,85,0.00,CLR,CLR,0.00,WeatherDisplay:10.37,2013-03-06 12:15:00,
2013-03-06 06:21:00,23.0,18.9,30.38,NE,47,0.0,3.0,84,0.00,CLR,CLR,0.00,WeatherDisplay:10.37,2013-03-06 12:21:00,
2013-03-06 06:27:00,22.8,18.7,30.38,East,81,2.0,4.0,84,0.00,CLR,CLR,0.00,WeatherDisplay:10.37,2013-03-06 12:27:00,
2013-03-06 06:33:00,22.8,18.7,30.38,East,86,5.0,7.0,84,0.00,CLR,CLR,0.00,WeatherDisplay:10.37,2013-03-06 12:33:00,
2013-03-06 06:39:00,23.0,18.3,30.38,East,83,5.0,6.0,82,0.00,CLR,CLR,0.00,WeatherDisplay:10.37,2013-03-06 12:39:00,
2013-03-06 06:45:00,23.0,18.3,30.38,ENE,65,1.0,7.0,82,0.00,CLR,CLR,0.00,WeatherDisplay:10.37,2013-03-06 12:45:00,
2013-03-06 06:51:00,23.0,18.0,30.38,NNE,15,0.0,2.0,81,0.00,CLR,CLR,0.00,WeatherDisplay:10.37,2013-03-06 12:51:00,
2013-03-06 06:57:00,22.8,17.8,30.38,NNE,20,5.0,7.0,81,0.00,CLR,CLR,0.00,WeatherDisplay:10.37,2013-03-06 12:57:00,
2013-03-06 07:03:00,22.6,17.9,30.38,NE,55,0.0,2.0,82,0.00,FEW,FEW,0.00,WeatherDisplay:10.37,2013-03-06 13:03:00,
2013-03-06 07:09:00,22.6,17.9,30.38,NNE,25,0.0,4.0,82,0.00,FEW,FEW,0.00,WeatherDisplay:10.37,2013-03-06 13:09:00,
2013-03-06 07:15:00,22.3,17.6,30.39,NE,52,1.0,2.0,82,0.00,FEW,FEW,0.00,WeatherDisplay:10.37,2013-03-06 13:15:00,
2013-03-06 07:21:00,21.9,17.8,30.39,ENE,74,2.0,4.0,84,0.00,FEW,FEW,0.00,WeatherDisplay:10.37,2013-03-06 13:21:00,
2013-03-06 07:27:00,22.1,18.0,30.39,East,97,2.0,5.0,84,0.00,FEW,FEW,0.00,WeatherDisplay:10.37,2013-03-06 13:27:00,
2013-03-06 07:33:00,22.7,18.3,30.39,East,90,3.0,4.0,83,0.00,FEW,FEW,0.00,WeatherDisplay:10.37,2013-03-06 13:33:00,
2013-03-06 07:39:00,23.4,18.4,30.38,East,88,5.0,6.0,81,0.00,FEW,FEW,0.00,WeatherDisplay:10.37,2013-03-06 13:39:00,
2013-03-06 07:45:00,23.7,18.7,30.38,East,83,3.0,4.0,81,0.00,FEW,FEW,0.00,WeatherDisplay:10.37,2013-03-06 13:45:00,
2013-03-06 07:51:00,24.4,19.1,30.39,ENE,69,0.0,3.0,80,0.00,FEW,FEW,0.00,WeatherDisplay:10.37,2013-03-06 13:51:00,
2013-03-06 07:57:00,24.6,19.0,30.39,ENE,78,3.0,4.0,79,0.00,FEW,FEW,0.00,WeatherDisplay:10.37,2013-03-06 13:57:00,
2013-03-06 08:03:00,25.2,19.3,30.40,ENE,69,5.0,8.0,78,0.00,FEW,FEW,0.00,WeatherDisplay:10.37,2013-03-06 14:03:00,
2013-03-06 08:09:00,25.5,19.6,30.40,ENE,72,3.0,7.0,78,0.00,FEW,FEW,0.00,WeatherDisplay:10.37,2013-03-06 14:09:00,
2013-03-06 08:15:00,25.8,19.3,30.41,ENE,73,3.0,4.0,76,0.00,FEW,FEW,0.00,WeatherDisplay:10.37,2013-03-06 14:15:00,
2013-03-06 08:21:00,26.3,20.1,30.41,NE,44,0.0,2.0,77,0.00,FEW,FEW,0.00,WeatherDisplay:10.37,2013-03-06 14:21:00,
2013-03-06 08:27:00,26.8,19.3,30.41,East,81,3.0,5.0,73,0.00,FEW,FEW,0.00,WeatherDisplay:10.37,2013-03-06 14:27:00,
2013-03-06 08:33:00,27.1,19.3,30.41,ESE,105,3.0,4.0,72,0.00,FEW,FEW,0.00,WeatherDisplay:10.37,2013-03-06 14:33:00,
2013-03-06 08:39:00,27.9,20.0,30.41,SE,133,3.0,5.0,72,0.00,FEW,FEW,0.00,WeatherDisplay:10.37,2013-03-06 14:39:00,
2013-03-06 08:45:00,28.2,19.7,30.41,ESE,123,3.0,6.0,70,0.00,FEW,FEW,0.00,WeatherDisplay:10.37,2013-03-06 14:45:00,
2013-03-06 08:51:00,28.6,19.7,30.41,East,91,5.0,7.0,69,0.00,FEW,FEW,0.00,WeatherDisplay:10.37,2013-03-06 14:51:00,
2013-03-06 08:57:00,28.8,19.6,30.41,East,88,5.0,7.0,68,0.00,FEW,FEW,0.00,WeatherDisplay:10.37,2013-03-06 14:57:00,
2013-03-06 09:03:00,28.9,19.3,30.42,East,84,6.0,7.0,67,0.00,FEW,FEW,0.00,WeatherDisplay:10.37,2013-03-06 15:03:00,
2013-03-06 09:09:00,29.3,19.7,30.42,ENE,76,6.0,7.0,67,0.00,FEW,FEW,0.00,WeatherDisplay:10.37,2013-03-06 15:09:00,
2013-03-06 09:15:00,30.1,20.2,30.41,East,88,6.0,9.0,66,0.00,FEW,FEW,0.00,WeatherDisplay:10.37,2013-03-06 15:15:00,
2013-03-06 09:21:00,30.0,19.3,30.41,East,87,5.0,7.0,64,0.00,FEW,FEW,0.00,WeatherDisplay:10.37,2013-03-06 15:21:00,
2013-03-06 09:27:00,30.3,19.6,30.41,ENE,74,6.0,9.0,64,0.00,FEW,FEW,0.00,WeatherDisplay:10.37,2013-03-06 15:27:00,
2013-03-06 09:33:00,30.7,19.6,30.41,ESE,107,3.0,4.0,63,0.00,FEW,FEW,0.00,WeatherDisplay:10.37,2013-03-06 15:33:00,
2013-03-06 09:39:00,30.9,19.8,30.41,East,89,3.0,7.0,63,0.00,FEW,FEW,0.00,WeatherDisplay:10.37,2013-03-06 15:39:00,
2013-03-06 09:45:00,31.4,19.8,30.41,East,87,6.0,7.0,62,0.00,FEW,FEW,0.00,WeatherDisplay:10.37,2013-03-06 15:45:00,
2013-03-06 09:51:00,32.0,19.3,30.42,East,96,5.0,7.0,59,0.00,FEW,FEW,0.00,WeatherDisplay:10.37,2013-03-06 15:51:00,
2013-03-06 09:57:00,32.3,20.0,30.42,SE,141,6.0,7.0,60,0.00,FEW,FEW,0.00,WeatherDisplay:10.37,2013-03-06 15:57:00,
2013-03-06 10:03:00,31.6,20.8,30.41,SSE,165,2.0,7.0,64,0.00,FEW,FEW,0.00,WeatherDisplay:10.37,2013-03-06 16:03:00,
2013-03-06 10:09:00,32.3,20.7,30.41,WSW,254,2.0,5.0,62,0.00,FEW,FEW,0.00,WeatherDisplay:10.37,2013-03-06 16:09:00,
2013-03-06 10:15:00,33.1,20.3,30.42,SSE,155,5.0,7.0,59,0.00,FEW,FEW,0.00,WeatherDisplay:10.37,2013-03-06 16:15:00,
2013-03-06 10:21:00,32.5,20.1,30.42,ESE,108,3.0,6.0,60,0.00,FEW,FEW,0.00,WeatherDisplay:10.37,2013-03-06 16:21:00,
2013-03-06 10:27:00,33.1,20.3,30.41,ESE,114,5.0,8.0,59,0.00,FEW,FEW,0.00,WeatherDisplay:10.37,2013-03-06 16:27:00,
2013-03-06 10:33:00,33.8,21.4,30.41,SE,125,6.0,7.0,60,0.00,FEW,FEW,0.00,WeatherDisplay:10.37,2013-03-06 16:33:00,
2013-03-06 10:39:00,34.5,22.5,30.41,ESE,117,5.0,9.0,61,0.00,FEW,FEW,0.00,WeatherDisplay:10.37,2013-03-06 16:39:00,
2013-03-06 10:45:00,34.7,21.0,30.41,SE,137,6.0,8.0,57,0.00,FEW,FEW,0.00,WeatherDisplay:10.37,2013-03-06 16:45:00,
2013-03-06 10:51:00,34.3,21.0,30.40,ESE,114,5.0,9.0,58,0.00,FEW,FEW,0.00,WeatherDisplay:10.37,2013-03-06 16:51:00,
2013-03-06 10:57:00,34.3,21.0,30.40,East,88,7.0,7.0,58,0.00,FEW,FEW,0.00,WeatherDisplay:10.37,2013-03-06 16:57:00,
2013-03-06 11:03:00,34.3,21.0,30.40,East,90,7.0,7.0,58,0.00,FEW,FEW,0.00,WeatherDisplay:10.37,2013-03-06 17:03:00,
2013-03-06 11:09:00,35.0,21.3,30.40,East,90,6.0,7.0,57,0.00,FEW,FEW,0.00,WeatherDisplay:10.37,2013-03-06 17:09:00,
2013-03-06 11:15:00,36.9,22.7,30.40,East,96,7.0,8.0,56,0.00,FEW,FEW,0.00,WeatherDisplay:10.37,2013-03-06 17:15:00,
2013-03-06 11:21:00,36.6,22.8,30.40,ESE,116,6.0,9.0,57,0.00,FEW,FEW,0.00,WeatherDisplay:10.37,2013-03-06 17:21:00,
2013-03-06 11:27:00,37.5,22.8,30.40,SE,144,2.0,5.0,55,0.00,FEW,FEW,0.00,WeatherDisplay:10.37,2013-03-06 17:27:00,
2013-03-06 11:33:00,37.7,22.6,30.40,East,95,3.0,9.0,54,0.00,FEW,FEW,0.00,WeatherDisplay:10.37,2013-03-06 17:33:00,
2013-03-06 11:39:00,38.7,23.5,30.40,East,96,3.0,7.0,54,0.00,FEW,FEW,0.00,WeatherDisplay:10.37,2013-03-06 17:39:00,
2013-03-06 11:45:00,39.6,23.4,30.40,SE,143,6.0,7.0,52,0.00,FEW,FEW,0.00,WeatherDisplay:10.37,2013-03-06 17:45:00,
2013-03-06 11:51:00,39.4,23.2,30.39,SE,144,9.0,12.0,52,0.00,FEW,FEW,0.00,WeatherDisplay:10.37,2013-03-06 17:51:00,
2013-03-06 11:57:00,39.5,23.8,30.39,ENE,74,5.0,8.0,53,0.00,FEW,FEW,0.00,WeatherDisplay:10.37,2013-03-06 17:57:00,
2013-03-06 12:03:00,39.5,22.8,30.38,West,276,7.0,9.0,51,0.00,SCT,SCT,0.00,WeatherDisplay:10.37,2013-03-06 18:03:00,
2013-03-06 12:09:00,40.4,23.2,30.38,South,190,6.0,9.0,50,0.00,SCT,SCT,0.00,WeatherDisplay:10.37,2013-03-06 18:09:00,
2013-03-06 12:15:00,40.0,22.8,30.37,SSE,160,3.0,5.0,50,0.00,SCT,SCT,0.00,WeatherDisplay:10.37,2013-03-06 18:15:00,
2013-03-06 12:21:00,41.1,23.8,30.37,ESE,111,6.0,7.0,50,0.00,SCT,SCT,0.00,WeatherDisplay:10.37,2013-03-06 18:21:00,
2013-03-06 12:27:00,39.8,23.1,30.36,ESE,108,5.0,9.0,51,0.00,SCT,SCT,0.00,WeatherDisplay:10.37,2013-03-06 18:27:00,
2013-03-06 12:33:00,41.0,25.1,30.36,East,85,3.0,7.0,53,0.00,SCT,SCT,0.00,WeatherDisplay:10.37,2013-03-06 18:33:00,
2013-03-06 12:39:00,40.4,22.7,30.36,SE,124,3.0,5.0,49,0.00,SCT,SCT,0.00,WeatherDisplay:10.37,2013-03-06 18:39:00,
2013-03-06 12:45:00,40.4,23.2,30.36,ESE,122,5.0,6.0,50,0.00,SCT,SCT,0.00,WeatherDisplay:10.37,2013-03-06 18:45:00,
2013-03-06 12:51:00,40.7,24.0,30.35,South,170,5.0,7.0,51,0.00,SCT,SCT,0.00,WeatherDisplay:10.37,2013-03-06 18:51:00,
2013-03-06 12:57:00,40.9,23.6,30.35,SW,214,7.0,10.0,50,0.00,SCT,SCT,0.00,WeatherDisplay:10.37,2013-03-06 18:57:00,
2013-03-06 13:03:00,40.9,24.2,30.34,SSE,160,5.0,12.0,51,0.00,BKN,BKN,0.00,WeatherDisplay:10.37,2013-03-06 19:03:00,
2013-03-06 13:09:00,40.7,23.5,30.34,SSE,168,8.0,9.0,50,0.00,BKN,BKN,0.00,WeatherDisplay:10.37,2013-03-06 19:09:00,
2013-03-06 13:15:00,41.6,24.4,30.34,SE,133,5.0,7.0,50,0.00,BKN,BKN,0.00,WeatherDisplay:10.37,2013-03-06 19:15:00,
2013-03-06 13:21:00,41.1,23.9,30.34,SSE,155,7.0,9.0,50,0.00,BKN,BKN,0.00,WeatherDisplay:10.37,2013-03-06 19:21:00,
2013-03-06 13:27:00,41.7,23.9,30.33,South,174,6.0,9.0,49,0.00,BKN,BKN,0.00,WeatherDisplay:10.37,2013-03-06 19:27:00,
2013-03-06 13:33:00,41.5,23.7,30.33,South,169,3.0,7.0,49,0.00,BKN,BKN,0.00,WeatherDisplay:10.37,2013-03-06 19:33:00,
2013-03-06 13:39:00,41.8,22.5,30.33,SE,138,5.0,7.0,46,0.00,BKN,BKN,0.00,WeatherDisplay:10.37,2013-03-06 19:39:00,
2013-03-06 13:45:00,41.4,24.1,30.33,SE,127,3.0,8.0,50,0.00,BKN,BKN,0.00,WeatherDisplay:10.37,2013-03-06 19:45:00,
2013-03-06 13:51:00,42.0,24.7,30.32,SE,133,5.0,7.0,50,0.00,BKN,BKN,0.00,WeatherDisplay:10.37,2013-03-06 19:51:00,
2013-03-06 13:57:00,42.3,24.5,30.32,SE,142,5.0,9.0,49,0.00,BKN,BKN,0.00,WeatherDisplay:10.37,2013-03-06 19:57:00,
2013-03-06 14:03:00,42.4,24.5,30.31,SSE,153,6.0,10.0,49,0.00,BKN,BKN,0.00,WeatherDisplay:10.37,2013-03-06 20:03:00,
2013-03-06 14:09:00,42.6,24.7,30.31,SE,144,6.0,7.0,49,0.00,BKN,BKN,0.00,WeatherDisplay:10.37,2013-03-06 20:09:00,
2013-03-06 14:15:00,42.7,24.8,30.30,East,93,3.0,4.0,49,0.00,BKN,BKN,0.00,WeatherDisplay:10.37,2013-03-06 20:15:00,
2013-03-06 14:21:00,43.5,25.6,30.30,SE,124,6.0,7.0,49,0.00,BKN,BKN,0.00,WeatherDisplay:10.37,2013-03-06 20:21:00,
2013-03-06 14:27:00,45.3,26.2,30.29,SSE,154,6.0,8.0,47,0.00,BKN,BKN,0.00,WeatherDisplay:10.37,2013-03-06 20:27:00,
2013-03-06 14:33:00,45.1,26.0,30.29,SE,125,5.0,8.0,47,0.00,BKN,BKN,0.00,WeatherDisplay:10.37,2013-03-06 20:33:00,
2013-03-06 14:39:00,45.2,26.1,30.28,East,90,3.0,8.0,47,0.00,BKN,BKN,0.00,WeatherDisplay:10.37,2013-03-06 20:39:00,
2013-03-06 14:45:00,46.9,27.1,30.28,SSE,147,3.0,7.0,46,0.00,BKN,BKN,0.00,WeatherDisplay:10.37,2013-03-06 20:45:00,
2013-03-06 14:51:00,45.4,24.7,30.28,SE,144,7.0,9.0,44,0.00,BKN,BKN,0.00,WeatherDisplay:10.37,2013-03-06 20:51:00,
2013-03-06 14:57:00,45.3,24.6,30.28,SE,142,8.0,12.0,44,0.00,BKN,BKN,0.00,WeatherDisplay:10.37,2013-03-06 20:57:00,
2013-03-06 15:03:00,45.4,25.3,30.27,SSE,149,7.0,10.0,45,0.00,BKN,BKN,0.00,WeatherDisplay:10.37,2013-03-06 21:03:00,
2013-03-06 15:09:00,44.8,25.8,30.27,ESE,121,7.0,12.0,47,0.00,BKN,BKN,0.00,WeatherDisplay:10.37,2013-03-06 21:09:00,
2013-03-06 15:15:00,45.2,25.6,30.27,ESE,114,6.0,12.0,46,0.00,BKN,BKN,0.00,WeatherDisplay:10.37,2013-03-06 21:15:00,
2013-03-06 15:21:00,45.1,25.5,30.27,ESE,111,6.0,8.0,46,0.00,BKN,BKN,0.00,WeatherDisplay:10.37,2013-03-06 21:21:00,
2013-03-06 15:27:00,45.8,26.1,30.26,ESE,106,5.0,12.0,46,0.00,BKN,BKN,0.00,WeatherDisplay:10.37,2013-03-06 21:27:00,
2013-03-06 15:33:00,45.7,25.0,30.26,ESE,120,5.0,9.0,44,0.00,BKN,BKN,0.00,WeatherDisplay:10.37,2013-03-06 21:33:00,
2013-03-06 15:39:00,46.1,25.4,30.25,ESE,120,6.0,9.0,44,0.00,BKN,BKN,0.00,WeatherDisplay:10.37,2013-03-06 21:39:00,
2013-03-06 15:45:00,46.5,25.2,30.25,ESE,121,8.0,10.0,43,0.00,BKN,BKN,0.00,WeatherDisplay:10.37,2013-03-06 21:45:00,
2013-03-06 15:51:00,46.0,24.7,30.24,ESE,122,8.0,12.0,43,0.00,BKN,BKN,0.00,WeatherDisplay:10.37,2013-03-06 21:51:00,
2013-03-06 15:57:00,45.7,25.5,30.24,SE,127,7.0,14.0,45,0.00,BKN,BKN,0.00,WeatherDisplay:10.37,2013-03-06 21:57:00,
2013-03-06 16:03:00,45.8,25.1,30.24,ESE,116,6.0,8.0,44,0.00,BKN,BKN,0.00,WeatherDisplay:10.37,2013-03-06 22:03:00,
2013-03-06 16:09:00,46.0,24.7,30.24,SE,125,7.0,12.0,43,0.00,BKN,BKN,0.00,WeatherDisplay:10.37,2013-03-06 22:09:00,
2013-03-06 16:15:00,45.9,25.2,30.24,ESE,122,7.0,10.0,44,0.00,BKN,BKN,0.00,WeatherDisplay:10.37,2013-03-06 22:15:00,
2013-03-06 16:21:00,45.9,25.8,30.24,SE,135,10.0,16.0,45,0.00,BKN,BKN,0.00,WeatherDisplay:10.37,2013-03-06 22:21:00,
2013-03-06 16:27:00,45.5,25.4,30.23,SE,137,7.0,9.0,45,0.00,BKN,BKN,0.00,WeatherDisplay:10.37,2013-03-06 22:27:00,
2013-03-06 16:33:00,45.9,25.7,30.23,SE,139,8.0,10.0,45,0.00,BKN,BKN,0.00,WeatherDisplay:10.37,2013-03-06 22:33:00,
2013-03-06 16:39:00,45.9,25.2,30.22,SE,125,6.0,9.0,44,0.00,BKN,BKN,0.00,WeatherDisplay:10.37,2013-03-06 22:39:00,
2013-03-06 16:45:00,45.7,24.5,30.22,SE,138,6.0,10.0,43,0.00,BKN,BKN,0.00,WeatherDisplay:10.37,2013-03-06 22:45:00,
2013-03-06 16:51:00,45.6,24.4,30.22,SE,144,8.0,12.0,43,0.00,BKN,BKN,0.00,WeatherDisplay:10.37,2013-03-06 22:51:00,
2013-03-06 16:57:00,45.6,24.4,30.22,SE,132,5.0,10.0,43,0.00,BKN,BKN,0.00,WeatherDisplay:10.37,2013-03-06 22:57:00,
2013-03-06 17:03:00,45.3,23.5,30.21,ESE,116,9.0,12.0,42,0.00,BKN,BKN,0.00,WeatherDisplay:10.37,2013-03-06 23:03:00,
2013-03-06 17:09:00,45.3,23.5,30.21,ESE,119,6.0,9.0,42,0.00,BKN,BKN,0.00,WeatherDisplay:10.37,2013-03-06 23:09:00,
2013-03-06 17:15:00,45.1,23.3,30.21,ESE,120,6.0,8.0,42,0.00,BKN,BKN,0.00,WeatherDisplay:10.37,2013-03-06 23:15:00,
2013-03-06 17:21:00,45.0,23.8,30.21,SE,127,5.0,7.0,43,0.00,BKN,BKN,0.00,WeatherDisplay:10.37,2013-03-06 23:21:00,
2013-03-06 17:27:00,44.6,24.0,30.20,SE,129,5.0,7.0,44,0.00,BKN,BKN,0.00,WeatherDisplay:10.37,2013-03-06 23:27:00,
2013-03-06 17:33:00,44.4,23.8,30.20,ESE,116,7.0,9.0,44,0.00,BKN,BKN,0.00,WeatherDisplay:10.37,2013-03-06 23:33:00,
2013-03-06 17:39:00,44.1,23.6,30.20,SE,124,6.0,7.0,44,0.00,BKN,BKN,0.00,WeatherDisplay:10.37,2013-03-06 23:39:00,
2013-03-06 17:45:00,44.1,23.6,30.20,NE,46,10.0,10.0,44,0.00,BKN,BKN,0.00,WeatherDisplay:10.37,2013-03-06 23:45:00,
2013-03-06 17:51:00,43.9,23.9,30.19,NE,49,3.0,7.0,45,0.00,BKN,BKN,0.00,WeatherDisplay:10.37,2013-03-06 23:51:00,
2013-03-06 17:57:00,43.9,24.4,30.19,ESE,120,6.0,7.0,46,0.00,BKN,BKN,0.00,WeatherDisplay:10.37,2013-03-06 23:57:00,
2013-03-06 18:03:00,43.7,24.2,30.20,SE,129,3.0,7.0,46,0.00,OVC,OVC,0.00,WeatherDisplay:10.37,2013-03-07 00:03:00,
2013-03-06 18:09:00,43.7,24.8,30.20,East,91,3.0,6.0,47,0.00,OVC,OVC,0.00,WeatherDisplay:10.37,2013-03-07 00:09:00,
2013-03-06 18:15:00,43.5,24.6,30.19,ENE,74,5.0,6.0,47,0.00,OVC,OVC,0.00,WeatherDisplay:10.37,2013-03-07 00:15:00,
2013-03-06 18:21:00,43.5,24.6,30.19,ESE,121,3.0,6.0,47,0.00,OVC,OVC,0.00,WeatherDisplay:10.37,2013-03-07 00:21:00,
2013-03-06 18:27:00,43.3,24.4,30.19,ESE,119,3.0,5.0,47,0.00,OVC,OVC,0.00,WeatherDisplay:10.37,2013-03-07 00:27:00,
2013-03-06 18:33:00,43.2,24.3,30.19,ESE,103,3.0,5.0,47,0.00,OVC,OVC,0.00,WeatherDisplay:10.37,2013-03-07 00:33:00,
2013-03-06 18:39:00,43.2,23.8,30.19,ESE,111,3.0,7.0,46,0.00,OVC,OVC,0.00,WeatherDisplay:10.37,2013-03-07 00:39:00,
2013-03-06 18:45:00,43.2,23.8,30.19,ESE,121,3.0,5.0,46,0.00,OVC,OVC,0.00,WeatherDisplay:10.37,2013-03-07 00:45:00,
2013-03-06 18:51:00,43.0,23.6,30.19,SE,124,3.0,4.0,46,0.00,OVC,OVC,0.00,WeatherDisplay:10.37,2013-03-07 00:51:00,
2013-03-06 18:57:00,42.8,23.9,30.19,SE,128,2.0,3.0,47,0.00,OVC,OVC,0.00,WeatherDisplay:10.37,2013-03-07 00:57:00,
2013-03-06 19:03:00,42.6,23.8,30.19,ESE,121,5.0,7.0,47,0.00,OVC,OVC,0.00,WeatherDisplay:10.37,2013-03-07 01:03:00,
2013-03-06 19:09:00,42.6,23.8,30.19,ESE,115,5.0,6.0,47,0.00,OVC,OVC,0.00,WeatherDisplay:10.37,2013-03-07 01:09:00,
2013-03-06 19:15:00,42.4,23.6,30.18,ESE,114,6.0,7.0,47,0.00,OVC,OVC,0.00,WeatherDisplay:10.37,2013-03-07 01:15:00,
2013-03-06 19:21:00,42.3,23.5,30.18,SE,125,5.0,6.0,47,0.00,OVC,OVC,0.00,WeatherDisplay:10.37,2013-03-07 01:21:00,
2013-03-06 19:27:00,42.3,23.5,30.19,SE,128,5.0,7.0,47,0.00,OVC,OVC,0.00,WeatherDisplay:10.37,2013-03-07 01:27:00,
2013-03-06 19:33:00,41.9,23.1,30.19,SE,124,5.0,7.0,47,0.00,OVC,OVC,0.00,WeatherDisplay:10.37,2013-03-07 01:33:00,
2013-03-06 19:39:00,41.8,23.0,30.18,SE,136,8.0,12.0,47,0.00,OVC,OVC,0.00,WeatherDisplay:10.37,2013-03-07 01:39:00,
2013-03-06 19:45:00,41.7,22.9,30.18,SE,139,3.0,6.0,47,0.00,OVC,OVC,0.00,WeatherDisplay:10.37,2013-03-07 01:45:00,
2013-03-06 19:51:00,41.7,22.9,30.19,SSE,149,5.0,8.0,47,0.00,OVC,OVC,0.00,WeatherDisplay:10.37,2013-03-07 01:51:00,
2013-03-06 19:57:00,41.5,22.7,30.19,SE,142,3.0,7.0,47,0.00,OVC,OVC,0.00,WeatherDisplay:10.37,2013-03-07 01:57:00,
2013-03-06 20:03:00,41.2,22.5,30.19,SE,125,5.0,6.0,47,0.00,BKN,BKN,0.00,WeatherDisplay:10.37,2013-03-07 02:03:00,
2013-03-06 20:09:00,40.8,22.6,30.19,ESE,120,0.0,5.0,48,0.00,BKN,BKN,0.00,WeatherDisplay:10.37,2013-03-07 02:09:00,
2013-03-06 20:15:00,40.6,22.4,30.19,ESE,120,0.0,0.0,48,0.00,BKN,BKN,0.00,WeatherDisplay:10.37,2013-03-07 02:15:00,
2013-03-06 20:21:00,40.1,22.4,30.19,SE,124,0.0,0.0,49,0.00,BKN,BKN,0.00,WeatherDisplay:10.37,2013-03-07 02:21:00,
2013-03-06 20:27:00,39.9,22.3,30.18,ESE,117,0.0,0.0,49,0.00,BKN,BKN,0.00,WeatherDisplay:10.37,2013-03-07 02:27:00,
2013-03-06 20:33:00,39.6,22.5,30.18,ESE,117,2.0,4.0,50,0.00,BKN,BKN,0.00,WeatherDisplay:10.37,2013-03-07 02:33:00,
2013-03-06 20:39:00,39.4,22.8,30.17,ESE,121,0.0,0.0,51,0.00,BKN,BKN,0.00,WeatherDisplay:10.37,2013-03-07 02:39:00,
2013-03-06 20:45:00,39.2,22.6,30.17,ESE,119,0.0,0.0,51,0.00,BKN,BKN,0.00,WeatherDisplay:10.37,2013-03-07 02:45:00,
2013-03-06 20:51:00,39.0,22.4,30.17,ESE,118,2.0,4.0,51,0.00,BKN,BKN,0.00,WeatherDisplay:10.37,2013-03-07 02:51:00,
2013-03-06 20:57:00,39.0,22.4,30.17,ESE,107,3.0,5.0,51,0.00,BKN,BKN,0.00,WeatherDisplay:10.37,2013-03-07 02:57:00,
2013-03-06 21:03:00,38.8,22.2,30.18,ESE,109,0.0,0.0,51,0.00,FEW,FEW,0.00,WeatherDisplay:10.37,2013-03-07 03:03:00,
2013-03-06 21:09:00,38.7,22.6,30.18,ESE,117,0.0,3.0,52,0.00,FEW,FEW,0.00,WeatherDisplay:10.37,2013-03-07 03:09:00,
2013-03-06 21:15:00,38.7,23.0,30.18,ESE,115,3.0,5.0,53,0.00,FEW,FEW,0.00,WeatherDisplay:10.37,2013-03-07 03:15:00,
2013-03-06 21:21:00,38.7,23.0,30.18,ESE,114,5.0,7.0,53,0.00,FEW,FEW,0.00,WeatherDisplay:10.37,2013-03-07 03:21:00,
2013-03-06 21:27:00,38.8,23.1,30.18,ESE,122,5.0,6.0,53,0.00,FEW,FEW,0.00,WeatherDisplay:10.37,2013-03-07 03:27:00,
2013-03-06 21:33:00,38.8,23.1,30.18,ESE,121,5.0,7.0,53,0.00,FEW,FEW,0.00,WeatherDisplay:10.37,2013-03-07 03:33:00,
2013-03-06 21:39:00,38.7,23.5,30.18,ESE,121,5.0,8.0,54,0.00,FEW,FEW,0.00,WeatherDisplay:10.37,2013-03-07 03:39:00,
2013-03-06 21:45:00,38.5,23.3,30.18,ESE,120,3.0,9.0,54,0.00,FEW,FEW,0.00,WeatherDisplay:10.37,2013-03-07 03:45:00,
2013-03-06 21:51:00,38.3,23.5,30.18,ESE,121,5.0,6.0,55,0.00,FEW,FEW,0.00,WeatherDisplay:10.37,2013-03-07 03:51:00,
2013-03-06 21:57:00,37.9,23.2,30.18,ESE,108,5.0,7.0,55,0.00,FEW,FEW,0.00,WeatherDisplay:10.37,2013-03-07 03:57:00,
2013-03-06 22:03:00,37.9,23.6,30.18,ESE,109,5.0,7.0,56,0.00,CLR,CLR,0.00,WeatherDisplay:10.37,2013-03-07 04:03:00,
2013-03-06 22:09:00,37.8,23.5,30.18,East,97,5.0,6.0,56,0.00,CLR,CLR,0.00,WeatherDisplay:10.37,2013-03-07 04:09:00,
2013-03-06 22:15:00,37.8,23.5,30.18,ESE,115,5.0,7.0,56,0.00,CLR,CLR,0.00,WeatherDisplay:10.37,2013-03-07 04:15:00,
2013-03-06 22:21:00,37.6,23.3,30.18,ESE,119,5.0,7.0,56,0.00,CLR,CLR,0.00,WeatherDisplay:10.37,2013-03-07 04:21:00,
2013-03-06 22:27:00,37.4,23.5,30.18,ESE,114,6.0,8.0,57,0.00,CLR,CLR,0.00,WeatherDisplay:10.37,2013-03-07 04:27:00,
2013-03-06 22:33:00,37.4,23.5,30.18,SE,125,5.0,6.0,57,0.00,CLR,CLR,0.00,WeatherDisplay:10.37,2013-03-07 04:33:00,
2013-03-06 22:39:00,37.1,23.2,30.18,ESE,110,5.0,8.0,57,0.00,CLR,CLR,0.00,WeatherDisplay:10.37,2013-03-07 04:39:00,
2013-03-06 22:45:00,36.9,23.1,30.18,ESE,117,5.0,7.0,57,0.00,CLR,CLR,0.00,WeatherDisplay:10.37,2013-03-07 04:45:00,
2013-03-06 22:51:00,36.9,23.5,30.17,SE,136,6.0,7.0,58,0.00,CLR,CLR,0.00,WeatherDisplay:10.37,2013-03-07 04:51:00,
2013-03-06 22:57:00,36.5,23.5,30.17,SE,126,5.0,6.0,59,0.00,CLR,CLR,0.00,WeatherDisplay:10.37,2013-03-07 04:57:00,
2013-03-06 23:00:00,36.3,23.3,30.17,ESE,120,5.0,6.0,59,0.00,CLR,CLR,0.00,WeatherDisplay:10.37,2013-03-07 05:00:00,
2013-03-06 23:03:00,36.3,23.3,30.17,ESE,123,3.0,5.0,59,0.00,CLR,CLR,0.00,WeatherDisplay:10.37,2013-03-07 05:03:00,
2013-03-06 23:09:00,36.0,23.8,30.17,ESE,122,3.0,5.0,61,0.00,CLR,CLR,0.00,WeatherDisplay:10.37,2013-03-07 05:09:00,
2013-03-06 23:15:00,35.8,24.0,30.18,SE,125,5.0,5.0,62,0.00,CLR,CLR,0.00,WeatherDisplay:10.37,2013-03-07 05:15:00,
2013-03-06 23:21:00,35.6,23.9,30.18,SE,125,6.0,8.0,62,0.00,CLR,CLR,0.00,WeatherDisplay:10.37,2013-03-07 05:21:00,
2013-03-06 23:24:00,35.4,23.7,30.17,SE,129,5.0,5.0,62,0.00,CLR,CLR,0.00,WeatherDisplay:10.37,2013-03-07 05:24:00,
2013-03-06 23:30:00,35.2,23.9,30.17,ESE,121,3.0,4.0,63,0.00,CLR,CLR,0.00,WeatherDisplay:10.37,2013-03-07 05:30:00,
2013-03-06 23:36:00,35.2,23.9,30.17,SE,131,5.0,7.0,63,0.00,CLR,CLR,0.00,WeatherDisplay:10.37,2013-03-07 05:36:00,
2013-03-06 23:42:00,35.1,24.1,30.17,ESE,116,3.0,4.0,64,0.00,CLR,CLR,0.00,WeatherDisplay:10.37,2013-03-07 05:42:00,
2013-03-06 23:48:00,34.9,23.9,30.17,ESE,111,5.0,6.0,64,0.00,CLR,CLR,0.00,WeatherDisplay:10.37,2013-03-07 05:48:00,
2013-03-06 23:54:00,35.1,24.1,30.17,ESE,105,3.0,6.0,64,0.00,CLR,CLR,0.00,WeatherDisplay:10.37,2013-03-07 05:54:00,